Location: George Washington National Forest Helicopter Landing Site
(38.6463°N, 79.0851°W)
Time: 02:12:29
(UTC-04:00)

Tiros 1 despin weight - Pass Details

Date: 28 August 2019
Orbit: 594 x 642 km, 48.2° (Epoch: 21 September)

Event Time Altitude Azimuth Distance (km) Brightness Sun altitude
Rises 04:29:00 0° 301° (WNW) 2,863 - -24.3°
Reaches altitude 10° 04:31:17 10° 300° (WNW) 1,965 - -23.9°
Maximum altitude 04:35:47 75° 216° (SW) 640 - -23.2°
Exits shadow 04:36:03 72° 180° (S) 650 ? -23.2°
Drops below altitude 10° 04:40:21 10° 131° (SE) 1,987 ? -22.5°
Sets 04:42:41 0° 129° (SE) 2,899 ? -22.1°
